Location: Waco, TX
(31.5480°N, 97.1670°W)
Time: 00:35:30
(UTC-06:00)

ISS - Pass Details

Date: 11 December 2017
Orbit: 403 x 407 km, 51.6° (Epoch: 12 December)

Event Time Altitude Azimuth Distance (km) Brightness Sun altitude
Rises 18:57:37 0° 336° (NNW) 2,325 0.1 -19.0°
Enters shadow 18:59:11 - 349° (N) 1,855 -0.5 -19.3°
Reaches altitude 10° 19:01:16 10° 18° (NNE) 1,461 - -19.7°
Maximum altitude 19:01:59 11° 31° (NNE) 1,429 - -19.9°
Drops below altitude 10° 19:02:43 10° 44° (NE) 1,459 - -20.0°
Sets 19:06:21 0° 86° (E) 2,314 - -20.8°
